User: anonymous   Login
Location: Unspecified
(0.0000°N, 0.0000°E)
Time: 06:17:24
(UTC+00:00)
Language:

TATIANA 2 - Orbit

View from above orbital plane
View from above orbital plane
View from above satellite
View from above satellite

Ground track
Ground track

The orbit data is extracted from the following two-line orbital elements,

1 35868U 09049D   18175.63827952  .00000016  00000-0  25391-4 0  9997
2 35868  98.3970 186.9683 0005387 113.7971 246.3773 14.22817340455199
Epoch (UTC): 24 June 2018 15:19:07
Eccentricity: 0.0005387
inclination: 98.3970°
perigee height: 812 km
apogee height: 820 km
right ascension of ascending node: 186.9683°
argument of perigee: 113.7971°
revolutions per day: 14.22817340
mean anomaly at epoch: 246.3773°
orbit number at epoch: 45519

The dashed part of the orbit path shows where the satellite is in the earth's shadow,  

DLR